Weather History for KILN - June, 2013

Change the Weather History Date:

Tuesday, June 18, 2013

  Actual Average (KDAY) Record (KDAY)
Temperature  
Mean Temperature 72 °F 72 °F  
Max Temperature 84 °F 81 °F 101 °F (1944)
Min Temperature 64 °F 62 °F 47 °F (1903)
Degree Days  
Heating Degree Days 0 0  
Month to date heating degree days 22  
Since 1 June heating degree days 22  
Since 1 July heating degree days 5642  
Cooling Degree Days 8 7  
Month to date cooling degree days 94  
Year to date cooling degree days 164  
Since 1 June cooling degree days 94  
Growing Degree Days 22 (Base 50)    
Moisture  
Dew Point 63 °F    
Average Humidity 81    
Maximum Humidity 97    
Minimum Humidity 56    
Precipitation  
Precipitation 0.56 in 0.14 in 1.82 in (1978)
Month to date precipitation 2.53  
Year to date precipitation 19.57  
Snow  
Snow 0.00 in 0.00 in - ()
Month to date snowfall 0.0  
Since 1 June snowfall 0.0  
Since 1 July snowfall 23.3  
Snow Depth -    
Sea Level Pressure  
Sea Level Pressure 29.90 in    
Wind  
Wind Speed 7 mph (NW)    
Max Wind Speed 16 mph    
Max Gust Speed 23 mph    
Visibility 8 miles    
Events Rain , Thunderstorm    
T = Trace of Precipitation, MM = Missing Value Source: NWS Daily Summary

Daily Weather History Graph

Daily Weather History Graph

Search for Another Location

Airport or City:

Trip Planner

Search our weather history database for the weather conditions in past years. The results will help you decide how hot, cold, wet, or windy it might be!

Date:

Astronomy

Jun. 18, 2013 Rise Set
Actual Time 6:08 AM EDT 9:05 PM EDT
Civil Twilight 5:35 AM EDT 9:37 PM EDT
Nautical Twilight 4:54 AM EDT 10:18 PM EDT
Astronomical Twilight 4:07 AM EDT 11:06 PM EDT
Moon 3:49 PM EDT (6/18) 2:14 AM EDT (6/18)
Length of Visible Light 16h 01m
Length of Day
14h 57m
Waxing Gibbous, 70% of the Moon is Illuminated
Jun 18
Waxing Gibbous
Jun 23
Full
Jun 30
Last Quarter
Jul 8
New
Jul 15
First Quarter

Hourly Weather History & Observations

Time (EDT) Temp. Heat Index Dew Point Humidity Pressure Visibility Wind Dir Wind Speed Gust Speed Precip Events Conditions
12:54 AM 72.0 °F - 66.0 °F 81% 29.88 in 10.0 mi SW 8.1 mph - N/A   Mostly Cloudy
1:54 AM 69.1 °F - 63.0 °F 81% 29.88 in 10.0 mi WSW 10.4 mph - 0.01 in   Partly Cloudy
2:54 AM 69.1 °F - 63.0 °F 81% 29.87 in 10.0 mi WSW 8.1 mph - N/A   Mostly Cloudy
3:54 AM 69.1 °F - 63.0 °F 81% 29.86 in 10.0 mi NNW 5.8 mph - N/A   Mostly Cloudy
4:16 AM 66.2 °F - 62.6 °F 88% 29.89 in 3.0 mi NNW 16.1 mph - 0.05 in Rain , Thunderstorm Heavy Thunderstorms and Rain
4:49 AM 66.2 °F - 62.6 °F 88% 29.90 in 1.8 mi Calm Calm - 0.13 in Rain , Thunderstorm Heavy Rain
4:54 AM 64.9 °F - 63.0 °F 93% 29.87 in 1.0 mi North 6.9 mph - 0.24 in Rain , Thunderstorm Heavy Thunderstorms and Rain
5:07 AM 66.2 °F - 62.6 °F 88% 29.90 in 2.5 mi SE 12.7 mph - 0.09 in Rain , Thunderstorm Thunderstorms and Rain
5:14 AM 66.2 °F - 62.6 °F 88% 29.90 in 5.0 mi SE 9.2 mph - 0.10 in Rain , Thunderstorm Light Rain
5:41 AM 66.2 °F - 62.6 °F 88% 29.90 in 5.0 mi North 6.9 mph - 0.11 in Rain , Thunderstorm Light Rain
5:54 AM 66.0 °F - 62.1 °F 87% 29.87 in 4.0 mi Calm Calm - 0.15 in Rain , Thunderstorm Rain
6:12 AM 66.2 °F - 62.6 °F 88% 29.91 in 7.0 mi WNW 9.2 mph - 0.02 in Rain Light Rain
6:54 AM 66.0 °F - 64.0 °F 93% 29.89 in 4.0 mi West 6.9 mph - 0.06 in Rain Light Rain
7:54 AM 64.9 °F - 64.0 °F 97% 29.91 in 4.0 mi NW 9.2 mph - 0.03 in Rain Light Rain
8:54 AM 64.9 °F - 64.0 °F 97% 29.93 in 5.0 mi West 9.2 mph - 0.04 in Rain Light Rain
9:47 AM 66.2 °F - 64.4 °F 94% 29.95 in 7.0 mi Calm Calm - 0.02 in   Overcast
9:54 AM 66.9 °F - 64.9 °F 93% 29.93 in 7.0 mi Calm Calm - 0.02 in   Overcast
10:31 AM 68.0 °F - 64.4 °F 88% 29.95 in 9.0 mi WNW 8.1 mph - N/A   Mostly Cloudy
10:54 AM 69.1 °F - 64.9 °F 87% 29.91 in 9.0 mi Variable 3.5 mph - N/A   Partly Cloudy
11:54 AM 71.1 °F - 66.0 °F 84% 29.92 in 10.0 mi WSW 3.5 mph - N/A   Clear
12:54 PM 73.9 °F - 64.9 °F 73% 29.90 in 10.0 mi SSE 3.5 mph - N/A   Clear
1:54 PM 79.0 °F - 64.0 °F 60% 29.90 in 10.0 mi North 4.6 mph - N/A   Clear
2:54 PM 81.0 °F 82.5 °F 64.0 °F 56% 29.88 in 10.0 mi Calm Calm - N/A   Clear
3:54 PM 80.1 °F 81.5 °F 63.0 °F 56% 29.87 in 10.0 mi Calm Calm - N/A   Scattered Clouds
4:54 PM 79.0 °F - 63.0 °F 58% 29.86 in 10.0 mi West 4.6 mph - N/A   Scattered Clouds
5:19 PM 75.2 °F - 64.4 °F 69% 29.89 in 10.0 mi Calm Calm - 0.01 in Rain , Thunderstorm Light Thunderstorms and Rain
5:54 PM 73.9 °F - 66.9 °F 79% 29.87 in 10.0 mi ESE 3.5 mph - 0.01 in Thunderstorm Thunderstorm
6:05 PM 71.6 °F - 64.4 °F 78% 29.89 in 10.0 mi SE 9.2 mph - N/A Thunderstorm Mostly Cloudy
6:26 PM 71.6 °F - 64.4 °F 78% 29.89 in 10.0 mi ESE 6.9 mph - N/A   Overcast
6:54 PM 71.1 °F - 64.9 °F 81% 29.87 in 10.0 mi SE 5.8 mph - N/A   Mostly Cloudy
7:54 PM 72.0 °F - 66.9 °F 84% 29.91 in 10.0 mi Calm Calm - N/A   Mostly Cloudy
8:54 PM 71.1 °F - 62.1 °F 73% 29.93 in 10.0 mi NE 16.1 mph 23.0 mph N/A   Clear
9:54 PM 68.0 °F - 59.0 °F 73% 29.95 in 10.0 mi NNE 11.5 mph 20.7 mph N/A   Clear
10:54 PM 66.0 °F - 59.0 °F 78% 29.98 in 10.0 mi NNE 11.5 mph - N/A   Clear
11:54 PM 64.0 °F - 57.9 °F 80% 30.01 in 10.0 mi NE 9.2 mph - N/A   Clear